EZY815 EGCC-EDDF

Flight info

Callsign EZY815
Flight time 1h 18m
Altitude 37000
Route SONEX L975 DESIG L603 DOLAS DCT NAVPI DCT NOLRU DCT DIXAT DIXAT1D
Aircraft A320/M-SDE3FGHIRWY/LB1

Departure

Time 2026-05-04 23:21
Airport Manchester Airport (EGCC)

Arrival

Time 2026-05-05 00:39
Airport Frankfurt Main Airport (EDDF)
Time Latitude Longitude Altitude Speed Heading
2026-05-04 22:43 53.36738 -2.28379 255 ft 0 kts 134°
2026-05-04 23:08 53.36752 -2.28402 255 ft 3 kts 138°
2026-05-04 23:09 53.36769 -2.28425 255 ft 3 kts 148°
2026-05-04 23:09 53.36789 -2.28441 255 ft 3 kts 171°
2026-05-04 23:09 53.36798 -2.28444 255 ft 3 kts 190°
2026-05-04 23:10 53.36799 -2.28444 255 ft 3 kts 194°
2026-05-04 23:11 53.36811 -2.28434 255 ft 1 kts 224°
2026-05-04 23:11 53.36813 -2.28431 255 ft 0 kts 224°
2026-05-04 23:12 53.36795 -2.28461 255 ft 9 kts 224°
2026-05-04 23:13 53.36752 -2.28531 255 ft 8 kts 224°
2026-05-04 23:13 53.36710 -2.28600 255 ft 9 kts 225°
2026-05-04 23:13 53.36655 -2.28692 255 ft 13 kts 229°
2026-05-04 23:13 53.36605 -2.28785 255 ft 10 kts 176°
2026-05-04 23:14 53.36556 -2.28715 255 ft 9 kts 133°
2026-05-04 23:14 53.36512 -2.28639 255 ft 11 kts 135°
2026-05-04 23:14 53.36454 -2.28545 255 ft 14 kts 135°
2026-05-04 23:14 53.36372 -2.28468 255 ft 13 kts 164°
2026-05-04 23:15 53.36299 -2.28389 255 ft 12 kts 136°
2026-05-04 23:15 53.36245 -2.28299 255 ft 10 kts 135°
2026-05-04 23:15 53.36197 -2.28220 255 ft 10 kts 136°
2026-05-04 23:15 53.36141 -2.28125 255 ft 13 kts 135°
2026-05-04 23:16 53.36069 -2.28014 255 ft 15 kts 139°
2026-05-04 23:16 53.35983 -2.27890 255 ft 17 kts 141°
2026-05-04 23:16 53.35873 -2.27835 254 ft 17 kts 154°
2026-05-04 23:16 53.35793 -2.27693 251 ft 14 kts 137°
2026-05-04 23:17 53.35699 -2.27620 247 ft 17 kts 156°
2026-05-04 23:17 53.35622 -2.27501 245 ft 16 kts 112°
2026-05-04 23:17 53.35672 -2.27338 254 ft 13 kts 48°
2026-05-04 23:17 53.35727 -2.27231 255 ft 11 kts 50°
2026-05-04 23:18 53.35776 -2.27132 255 ft 11 kts 51°
2026-05-04 23:18 53.35822 -2.27024 255 ft 12 kts 60°
2026-05-04 23:18 53.35867 -2.26894 256 ft 14 kts 58°
2026-05-04 23:18 53.35931 -2.26757 256 ft 16 kts 55°
2026-05-04 23:19 53.36004 -2.26605 256 ft 18 kts 52°
2026-05-04 23:19 53.36084 -2.26437 256 ft 19 kts 50°
2026-05-04 23:19 53.36174 -2.26258 255 ft 18 kts 39°
2026-05-04 23:19 53.36256 -2.26130 255 ft 14 kts 52°
2026-05-04 23:20 53.36273 -2.25977 255 ft 13 kts 76°
2026-05-04 23:20 53.36281 -2.25808 258 ft 16 kts 116°
2026-05-04 23:20 53.36206 -2.25774 260 ft 13 kts 218°
2026-05-04 23:20 53.36117 -2.25954 258 ft 41 kts 231°
2026-05-04 23:21 53.35779 -2.26657 269 ft 110 kts 231°
2026-05-04 23:21 53.35169 -2.27911 283 ft 161 kts 230°
2026-05-04 23:21 53.34456 -2.29359 936 ft 162 kts 231°
2026-05-04 23:21 53.33750 -2.30829 1680 ft 161 kts 231°
2026-05-04 23:22 53.33022 -2.32369 2095 ft 176 kts 232°
2026-05-04 23:22 53.32436 -2.34194 2597 ft 183 kts 258°
2026-05-04 23:22 53.32458 -2.36374 3004 ft 198 kts 286°
2026-05-04 23:22 53.33135 -2.38453 3514 ft 209 kts 314°
2026-05-04 23:23 53.34311 -2.39937 4101 ft 220 kts 328°
2026-05-04 23:23 53.35693 -2.41292 4573 ft 237 kts 329°
2026-05-04 23:23 53.37207 -2.42518 4932 ft 243 kts 338°
2026-05-04 23:23 53.38806 -2.43435 4998 ft 243 kts 342°
2026-05-04 23:24 53.40430 -2.44240 5005 ft 243 kts 343°
2026-05-04 23:24 53.42057 -2.45032 5006 ft 243 kts 343°
2026-05-04 23:24 53.43706 -2.45646 5006 ft 244 kts 356°
2026-05-04 23:24 53.45384 -2.45314 5008 ft 245 kts 17°
2026-05-04 23:25 53.46902 -2.44027 5007 ft 246 kts 37°
2026-05-04 23:25 53.48085 -2.41848 5186 ft 265 kts 59°
2026-05-04 23:25 53.48732 -2.38903 5922 ft 274 kts 81°
2026-05-04 23:25 53.48660 -2.35693 6730 ft 279 kts 102°
2026-05-04 23:26 53.48341 -2.32467 7551 ft 283 kts 91°
2026-05-04 23:26 53.48517 -2.29208 8337 ft 286 kts 81°
2026-05-04 23:26 53.48849 -2.25887 9140 ft 290 kts 79°
2026-05-04 23:26 53.49215 -2.22538 9921 ft 294 kts 79°
2026-05-04 23:27 53.49592 -2.19101 10477 ft 307 kts 79°
2026-05-04 23:27 53.49986 -2.15439 10719 ft 330 kts 79°
2026-05-04 23:27 53.50408 -2.11510 10915 ft 353 kts 79°
2026-05-04 23:27 53.50849 -2.07362 11321 ft 366 kts 79°
2026-05-04 23:28 53.51293 -2.03114 11948 ft 372 kts 80°
2026-05-04 23:28 53.51740 -1.98790 12581 ft 378 kts 80°
2026-05-04 23:28 53.52192 -1.94410 13260 ft 382 kts 81°
2026-05-04 23:28 53.52365 -1.89939 13908 ft 385 kts 92°
2026-05-04 23:29 53.52036 -1.85462 14554 ft 388 kts 103°
2026-05-04 23:29 53.51296 -1.81096 15179 ft 390 kts 108°
2026-05-04 23:29 53.50513 -1.76710 15789 ft 393 kts 107°
2026-05-04 23:29 53.49734 -1.72296 16395 ft 396 kts 107°
2026-05-04 23:30 53.48954 -1.67854 16958 ft 398 kts 107°
2026-05-04 23:30 53.48165 -1.63381 17535 ft 400 kts 107°
2026-05-04 23:30 53.47369 -1.58885 18066 ft 403 kts 107°
2026-05-04 23:30 53.46565 -1.54361 18584 ft 406 kts 107°
2026-05-04 23:31 53.45752 -1.49810 19088 ft 408 kts 108°
2026-05-04 23:31 53.44932 -1.45232 19577 ft 411 kts 108°
2026-05-04 23:31 53.44103 -1.40630 20058 ft 414 kts 108°
2026-05-04 23:31 53.43264 -1.35993 20529 ft 416 kts 108°
2026-05-04 23:32 53.42414 -1.31318 20990 ft 419 kts 108°
2026-05-04 23:32 53.41560 -1.26630 21433 ft 421 kts 108°
2026-05-04 23:32 53.40702 -1.21916 21879 ft 424 kts 108°
2026-05-04 23:32 53.39851 -1.17244 22300 ft 426 kts 108°
2026-05-04 23:33 53.38981 -1.12487 22714 ft 429 kts 108°
2026-05-04 23:33 53.38105 -1.07695 23106 ft 431 kts 108°
2026-05-04 23:33 53.37228 -1.02887 23494 ft 434 kts 108°
2026-05-04 23:33 53.36340 -0.98037 23874 ft 436 kts 108°
2026-05-04 23:34 53.35444 -0.93173 24243 ft 438 kts 108°
2026-05-04 23:34 53.34539 -0.88295 24605 ft 440 kts 108°
2026-05-04 23:34 53.33627 -0.83391 24958 ft 442 kts 108°
2026-05-04 23:34 53.32708 -0.78460 25306 ft 444 kts 108°
2026-05-04 23:35 53.31784 -0.73502 25659 ft 446 kts 108°
2026-05-04 23:35 53.30856 -0.68536 26004 ft 448 kts 108°
2026-05-04 23:35 53.29923 -0.63548 26338 ft 450 kts 108°
2026-05-04 23:35 53.28999 -0.58611 26648 ft 452 kts 108°
2026-05-04 23:36 53.28055 -0.53594 26965 ft 454 kts 108°
2026-05-04 23:36 53.27100 -0.48557 27260 ft 455 kts 108°
2026-05-04 23:36 53.26139 -0.43509 27548 ft 457 kts 108°
2026-05-04 23:36 53.25175 -0.38443 27824 ft 458 kts 108°
2026-05-04 23:37 53.24205 -0.33353 28104 ft 460 kts 108°
2026-05-04 23:37 53.23234 -0.28253 28368 ft 462 kts 108°
2026-05-04 23:37 53.22262 -0.23150 28637 ft 463 kts 108°
2026-05-04 23:37 53.21282 -0.18032 28944 ft 463 kts 108°
2026-05-04 23:38 53.20297 -0.12914 29331 ft 462 kts 108°
2026-05-04 23:38 53.19312 -0.07828 29681 ft 461 kts 108°
2026-05-04 23:38 53.18325 -0.02754 30039 ft 460 kts 108°
2026-05-04 23:38 53.17338 0.02321 30399 ft 458 kts 108°
2026-05-04 23:39 53.16360 0.07365 30771 ft 456 kts 108°
2026-05-04 23:39 53.15383 0.12390 31118 ft 455 kts 108°
2026-05-04 23:39 53.14406 0.17400 31439 ft 455 kts 108°
2026-05-04 23:39 53.13426 0.22406 31752 ft 454 kts 108°
2026-05-04 23:40 53.12454 0.27349 32065 ft 453 kts 108°
2026-05-04 23:40 53.11468 0.32338 32379 ft 453 kts 108°
2026-05-04 23:40 53.10483 0.37312 32663 ft 453 kts 108°
2026-05-04 23:40 53.09498 0.42286 32953 ft 452 kts 108°
2026-05-04 23:41 53.08511 0.47252 33242 ft 452 kts 108°
2026-05-04 23:41 53.07525 0.52209 33538 ft 451 kts 108°
2026-05-04 23:41 53.06536 0.57168 33816 ft 451 kts 108°
2026-05-04 23:41 53.05548 0.62113 34083 ft 451 kts 108°
2026-05-04 23:42 53.04556 0.67059 34366 ft 451 kts 109°
2026-05-04 23:42 53.03560 0.71999 34626 ft 451 kts 109°
2026-05-04 23:42 53.02564 0.76931 34874 ft 451 kts 109°
2026-05-04 23:42 53.01565 0.81880 35109 ft 451 kts 109°
2026-05-04 23:43 53.00566 0.86819 35331 ft 452 kts 109°
2026-05-04 23:43 52.99564 0.91759 35557 ft 452 kts 109°
2026-05-04 23:43 52.98558 0.96699 35754 ft 452 kts 109°
2026-05-04 23:43 52.97541 1.01639 35961 ft 452 kts 110°
2026-05-04 23:44 52.96480 1.06553 36154 ft 453 kts 111°
2026-05-04 23:44 52.95380 1.11445 36344 ft 453 kts 111°
2026-05-04 23:44 52.94256 1.16325 36511 ft 454 kts 112°
2026-05-04 23:44 52.93123 1.21208 36707 ft 453 kts 112°
2026-05-04 23:45 52.91998 1.26068 36977 ft 450 kts 112°
2026-05-04 23:45 52.90884 1.30908 37053 ft 449 kts 112°
2026-05-04 23:45 52.88672 1.40585 37056 ft 450 kts 112°
2026-05-04 23:46 52.86454 1.50274 37056 ft 450 kts 112°
2026-05-04 23:46 52.84230 1.59951 37053 ft 450 kts 112°
2026-05-04 23:47 52.81990 1.69614 37053 ft 450 kts 112°
2026-05-04 23:47 52.79750 1.79208 37056 ft 450 kts 112°
2026-05-04 23:48 52.77495 1.88868 37057 ft 450 kts 112°
2026-05-04 23:48 52.75234 1.98523 37059 ft 450 kts 112°
2026-05-04 23:49 52.72963 2.08166 37058 ft 451 kts 113°
2026-05-04 23:49 52.70678 2.17800 37058 ft 451 kts 113°
2026-05-04 23:50 52.68773 2.25802 37056 ft 451 kts 113°
2026-05-04 23:50 52.66105 2.36994 37058 ft 451 kts 113°
2026-05-04 23:51 52.63801 2.46611 37054 ft 452 kts 114°
2026-05-04 23:51 52.61858 2.54668 37055 ft 451 kts 114°
2026-05-04 23:52 52.59534 2.64262 37052 ft 452 kts 114°
2026-05-04 23:52 52.57217 2.73789 37056 ft 452 kts 114°
2026-05-04 23:53 52.54869 2.83365 37051 ft 452 kts 115°
2026-05-04 23:53 52.52321 2.92790 37049 ft 451 kts 117°
2026-05-04 23:54 52.49567 3.02038 37047 ft 451 kts 118°
2026-05-04 23:54 52.46797 3.11276 37044 ft 451 kts 118°
2026-05-04 23:55 52.44070 3.20545 37043 ft 451 kts 118°
2026-05-04 23:56 52.40018 3.34391 37042 ft 451 kts 118°
2026-05-04 23:56 52.37286 3.43638 37042 ft 451 kts 118°
2026-05-04 23:57 52.34542 3.52880 37033 ft 451 kts 118°
2026-05-04 23:57 52.31794 3.62108 37032 ft 451 kts 119°
2026-05-04 23:58 52.29039 3.71306 37030 ft 451 kts 119°
2026-05-04 23:58 52.26281 3.80505 37022 ft 451 kts 119°
2026-05-04 23:59 52.23518 3.89688 37021 ft 451 kts 119°
2026-05-04 23:59 52.20737 3.98869 37020 ft 451 kts 119°
2026-05-05 00:00 52.17951 4.08025 37019 ft 451 kts 120°
2026-05-05 00:00 52.15181 4.17120 37017 ft 451 kts 120°
2026-05-05 00:01 52.12380 4.26265 37019 ft 451 kts 120°
2026-05-05 00:01 52.09579 4.35390 37018 ft 451 kts 120°
2026-05-05 00:02 52.06773 4.44514 37014 ft 451 kts 120°
2026-05-05 00:02 52.03954 4.53627 37011 ft 451 kts 120°
2026-05-05 00:03 52.01120 4.62719 37008 ft 451 kts 120°
2026-05-05 00:03 51.98288 4.71797 37008 ft 451 kts 120°
2026-05-05 00:04 51.95452 4.80870 37012 ft 451 kts 121°
2026-05-05 00:04 51.92719 4.89586 37011 ft 450 kts 121°
2026-05-05 00:05 51.89871 4.98625 37004 ft 450 kts 121°
2026-05-05 00:05 51.87010 5.07655 37003 ft 450 kts 121°
2026-05-05 00:06 51.84147 5.16662 36997 ft 450 kts 121°
2026-05-05 00:06 51.81274 5.25672 36994 ft 450 kts 121°
2026-05-05 00:07 51.78403 5.34655 36988 ft 450 kts 121°
2026-05-05 00:07 51.75545 5.43576 36985 ft 450 kts 122°
2026-05-05 00:08 51.72663 5.52523 36975 ft 449 kts 122°
2026-05-05 00:08 51.69770 5.61465 36967 ft 450 kts 122°
2026-05-05 00:09 51.66870 5.70396 36963 ft 450 kts 122°
2026-05-05 00:09 51.63961 5.79324 36963 ft 450 kts 122°
2026-05-05 00:10 51.61049 5.88238 36961 ft 450 kts 122°
2026-05-05 00:10 51.58124 5.97133 36960 ft 450 kts 122°
2026-05-05 00:11 51.55193 6.06028 36958 ft 450 kts 122°
2026-05-05 00:11 51.52247 6.14924 36955 ft 450 kts 122°
2026-05-05 00:12 51.49474 6.23957 36954 ft 454 kts 116°
2026-05-05 00:12 51.47171 6.33403 36951 ft 455 kts 116°
2026-05-05 00:13 51.44860 6.42849 36946 ft 454 kts 116°
2026-05-05 00:13 51.42529 6.52275 36950 ft 454 kts 116°
2026-05-05 00:14 51.40195 6.61668 36959 ft 454 kts 116°
2026-05-05 00:14 51.37875 6.70987 36960 ft 453 kts 116°
2026-05-05 00:15 51.35535 6.80370 36959 ft 453 kts 116°
2026-05-05 00:15 51.33189 6.89724 36963 ft 453 kts 116°
2026-05-05 00:16 51.30826 6.99072 36963 ft 453 kts 116°
2026-05-05 00:16 51.28254 7.08190 36970 ft 446 kts 126°
2026-05-05 00:17 51.24393 7.15637 36969 ft 434 kts 143°
2026-05-05 00:17 51.19439 7.20883 36964 ft 424 kts 158°
2026-05-05 00:18 51.14246 7.24989 36964 ft 424 kts 158°
2026-05-05 00:18 51.08969 7.29183 36964 ft 424 kts 157°
2026-05-05 00:19 51.03721 7.33517 36969 ft 425 kts 157°
2026-05-05 00:19 50.98489 7.37886 36971 ft 425 kts 157°
2026-05-05 00:20 50.93273 7.42208 36974 ft 425 kts 157°
2026-05-05 00:20 50.88018 7.46496 36977 ft 425 kts 157°
2026-05-05 00:21 50.82763 7.50770 36977 ft 425 kts 157°
2026-05-05 00:21 50.77508 7.55052 36980 ft 424 kts 157°
2026-05-05 00:22 50.72261 7.59322 36978 ft 424 kts 157°
2026-05-05 00:22 50.67014 7.63590 36978 ft 424 kts 157°
2026-05-05 00:23 50.61770 7.67842 36977 ft 424 kts 157°
2026-05-05 00:23 50.56559 7.72045 36974 ft 424 kts 157°
2026-05-05 00:24 50.51304 7.76256 36977 ft 424 kts 158°
2026-05-05 00:24 50.46049 7.80471 36980 ft 424 kts 157°
2026-05-05 00:25 50.41074 7.85530 36978 ft 431 kts 146°
2026-05-05 00:25 50.36373 7.91381 36978 ft 431 kts 146°
2026-05-05 00:26 50.31674 7.97189 36979 ft 431 kts 146°
2026-05-05 00:26 50.27112 8.03273 36977 ft 438 kts 131°
2026-05-05 00:26 50.25656 8.07501 36977 ft 448 kts 114°
2026-05-05 00:27 50.24711 8.12151 36964 ft 451 kts 110°
2026-05-05 00:27 50.23253 8.21713 36964 ft 454 kts 106°
2026-05-05 00:28 50.21911 8.31298 36967 ft 455 kts 107°
2026-05-05 00:28 50.20947 8.35944 36960 ft 445 kts 123°
2026-05-05 00:28 50.19102 8.39688 36959 ft 429 kts 145°
2026-05-05 00:28 50.16595 8.41996 36954 ft 413 kts 167°
2026-05-05 00:29 50.13812 8.42590 36945 ft 400 kts 189°
2026-05-05 00:29 50.11183 8.41433 36937 ft 392 kts 211°
2026-05-05 00:29 50.09114 8.38740 36941 ft 390 kts 233°
2026-05-05 00:29 50.07934 8.34938 36979 ft 398 kts 255°
2026-05-05 00:30 50.07646 8.30602 36144 ft 409 kts 266°
2026-05-05 00:30 50.07523 8.26129 34510 ft 416 kts 257°
2026-05-05 00:30 50.06814 8.21825 32976 ft 418 kts 247°
2026-05-05 00:30 50.05657 8.17592 31336 ft 422 kts 242°
2026-05-05 00:31 50.04350 8.13537 29603 ft 427 kts 240°
2026-05-05 00:31 50.03004 8.09372 27699 ft 434 kts 241°
2026-05-05 00:31 50.01719 8.05079 25749 ft 441 kts 244°
2026-05-05 00:31 50.00522 8.00652 23842 ft 445 kts 245°
2026-05-05 00:32 49.99121 7.96448 22421 ft 433 kts 232°
2026-05-05 00:32 49.97045 7.93162 21082 ft 422 kts 216°
2026-05-05 00:32 49.94474 7.91079 19741 ft 415 kts 199°
2026-05-05 00:32 49.91649 7.90371 18433 ft 411 kts 181°
2026-05-05 00:33 49.88844 7.91085 17138 ft 410 kts 163°
2026-05-05 00:33 49.86331 7.93150 15859 ft 410 kts 145°
2026-05-05 00:33 49.84379 7.96345 14616 ft 410 kts 126°
2026-05-05 00:33 49.83192 8.00330 13403 ft 408 kts 107°
2026-05-05 00:34 49.82894 8.04667 12203 ft 405 kts 88°
2026-05-05 00:34 49.83510 8.08875 11014 ft 400 kts 69°
2026-05-05 00:34 49.84953 8.12500 9775 ft 395 kts 49°
2026-05-05 00:34 49.87018 8.15218 8462 ft 390 kts 34°
2026-05-05 00:35 49.89244 8.17584 7153 ft 385 kts 34°
2026-05-05 00:35 49.91437 8.19896 5941 ft 376 kts 33°
2026-05-05 00:35 49.93559 8.22188 4805 ft 365 kts 38°
2026-05-05 00:35 49.95299 8.24891 4157 ft 343 kts 52°
2026-05-05 00:36 49.96531 8.27898 3737 ft 319 kts 63°
2026-05-05 00:36 49.97343 8.30971 3334 ft 297 kts 69°
2026-05-05 00:36 49.98049 8.33890 2950 ft 280 kts 69°
2026-05-05 00:36 49.98714 8.36637 2584 ft 263 kts 69°
2026-05-05 00:37 49.99340 8.39228 2251 ft 248 kts 69°
2026-05-05 00:37 49.99916 8.41618 1933 ft 225 kts 69°
2026-05-05 00:37 50.00440 8.43793 1646 ft 206 kts 69°
2026-05-05 00:37 50.00923 8.45799 1406 ft 188 kts 70°
2026-05-05 00:38 50.01356 8.47598 1160 ft 168 kts 68°
2026-05-05 00:38 50.01743 8.49213 962 ft 150 kts 68°
2026-05-05 00:38 50.02095 8.50692 686 ft 142 kts 69°
2026-05-05 00:38 50.02439 8.52120 534 ft 142 kts 68°
2026-05-05 00:39 50.02788 8.53557 379 ft 141 kts 68°
2026-05-05 00:39 50.03112 8.54904 349 ft 120 kts 69°
2026-05-05 00:39 50.03349 8.55892 355 ft 73 kts 69°
2026-05-05 00:39 50.03470 8.56388 355 ft 31 kts 68°
2026-05-05 00:40 50.03540 8.56684 352 ft 19 kts 69°
2026-05-05 00:40 50.03559 8.56768 352 ft 11 kts 71°
2026-05-05 00:40 50.03591 8.56876 354 ft 12 kts 56°
2026-05-05 00:40 50.03678 8.57047 358 ft 17 kts 45°
2026-05-05 00:41 50.03762 8.57168 359 ft 18 kts 42°
2026-05-05 00:41 50.03831 8.57249 362 ft 19 kts 37°
2026-05-05 00:41 50.03937 8.57392 367 ft 18 kts 49°
2026-05-05 00:41 50.03993 8.57562 365 ft 18 kts 70°
2026-05-05 00:42 50.04037 8.57752 369 ft 19 kts 69°
2026-05-05 00:42 50.04084 8.57946 372 ft 20 kts 69°
2026-05-05 00:42 50.04146 8.58141 370 ft 21 kts 39°
2026-05-05 00:42 50.04262 8.58206 366 ft 15 kts
2026-05-05 00:43 50.04364 8.58158 373 ft 16 kts 339°
2026-05-05 00:43 50.04465 8.58099 365 ft 17 kts 340°
2026-05-05 00:43 50.04573 8.58035 365 ft 13 kts 338°
2026-05-05 00:43 50.04655 8.57986 365 ft 14 kts 341°
2026-05-05 00:44 50.04751 8.57934 361 ft 14 kts 340°
2026-05-05 00:44 50.04822 8.57889 359 ft 11 kts 326°
2026-05-05 00:44 50.04857 8.57801 359 ft 9 kts 293°
2026-05-05 00:44 50.04883 8.57708 363 ft 12 kts 294°
2026-05-05 00:45 50.04894 8.57668 357 ft 8 kts 293°
2026-05-05 00:45 50.04902 8.57639 360 ft 6 kts 293°
2026-05-05 00:45 50.04904 8.57632 356 ft 0 kts 294°
2026-05-05 00:46 50.04915 8.57593 356 ft 4 kts 292°
2026-05-05 00:46 50.04897 8.57549 358 ft 5 kts 213°
2026-05-05 00:46 50.04866 8.57529 360 ft 4 kts 203°
2026-05-05 00:46 50.04856 8.57522 356 ft 0 kts 203°